Hourly Data Report for February 23, 2021

KUGAARUK CLIMATE
NUNAVUT
Current Station Operator: ECCC - MSC

68°32'15.060" N
89°47'47.020" W
15.80 m
2303094
71407
NBB

Download Data

Hourly Data (February 2021)
Hourly Data Report for February 23, 2021
TIME
LST
Temp Definition
°C
Dew Point Definition
°C
Rel Hum Definition
%
Precip. Amount Definition
mm

Wind Dir Definition
10's deg

Wind Spd Definition
km/h
Visibility Definition
km
Stn Press Definition
kPa
Hmdx Definition


Wind Chill Definition


Weather Definition


00:00 -27.2 -30.4 74 0.0 23 12   99.08   -37 LegendNANA
01:00 -27.1 -30.4 74 0.0 22 12   99.12   -37 LegendNANA
02:00 -27.3 -30.7 73 0.0 24 15   99.13   -38 LegendNANA
03:00 -26.7 -30.2 72 0.0 25 18   99.17   -38 LegendNANA
04:00 -28.0 -31.4 73 0.0 24 15   99.23   -39 LegendNANA
05:00 -29.3 -32.7 73 0.0 23 22   99.26   -43 LegendNANA
06:00 -28.9 -32.2 73 0.0 24 21   99.30   -42 LegendNANA
07:00 -28.9 -32.3 73 0.0 25 17   99.33   -41 LegendNANA
08:00 -29.0 -32.5 72 0.0 23 21   99.36   -42 LegendNANA
09:00 -28.7 -32.2 72 0.0 25 25   99.31   -43 LegendNANA
10:00 -28.5 -32.1 71 0.0 25 24   99.33   -42 LegendNANA
11:00 -28.4 -32.1 71 0.0 26 25   99.37   -42 LegendNANA
12:00 -28.9 -32.5 71 0.0 25 27   99.41   -44 LegendNANA
13:00 -29.4 -32.9 72 0.0 25 28   99.44   -44 LegendNANA
14:00 -29.8 -33.3 72 0.0 26 26   99.53   -44 LegendNANA
15:00 -30.9 -34.3 72 0.0 25 25   99.60   -46 LegendNANA
16:00 -31.6 -34.9 73 0.0 25 28   99.62   -47 LegendNANA
17:00 -30.7 -33.9 73 0.0 26 23   99.68   -45 LegendNANA
18:00 -31.1 -34.3 73 0.0 26 29   99.70   -47 LegendNANA
19:00 -31.6 -34.9 73 0.0 25 31   99.71   -48 LegendNANA
20:00 -31.3 -34.5 73 0.0 25 30   99.68   -47 LegendNANA
21:00 -31.8 -35.1 73 0.0 26 37   99.72   -49 LegendNANA
22:00 -32.1 -35.4 73 0.0 27 32   99.74   -49 LegendNANA
23:00 -32.9 -36.2 72 0.0 26 34   99.80   -50 LegendNANA

Notes on Data Quality.

Legend

  • E = Estimated
  • M = Missing
  • NA = Not Available*
  • [empty] = Indicates an unobserved value
Date modified: